Location: Dumbr?vi?a
(45.8833°N, 22.7000°E)
Time: 14:42:09
(UTC+00:00)

SKYMED 2 - Pass Details

Date: 03 March 2021
Orbit: 621 x 623 km, 97.9° (Epoch: 16 April)

Event Time Altitude Azimuth Distance (km) Brightness Sun altitude
Rises 16:54:14 0° 10° (N) 2,916 6.9 -7.0°
Reaches altitude 10° 16:56:26 10° 8° (N) 2,005 6.1 -7.4°
Maximum altitude 17:00:46 66° 286° (WNW) 682 4.1 -8.1°
Drops below altitude 10° 17:05:03 10° 205° (SSW) 1,988 6.5 -8.9°
Sets 17:07:14 0° 202° (SSW) 2,889 7.3 -9.2°
